GW2598 Weather Reports


time (UTC)temp
F
wind
direction
speed
knots
gust
knots
rain 1hr
in
rain 24hr
in
rain mn
in
humidity
%
barometer
mb
20260506014556 65 227 5.2 13.9 0.00 0.00 0.00 66 1009.8
20260506013053 65 209 7.0 13.9 0.00 0.00 0.00 65 1009.5
20260506011553 65 180 6.1 13.0 0.00 0.00 0.00 66 1009.3
20260506010055 65 182 7.0 14.8 0.00 0.00 0.00 66 1009.3
20260506004557 65 211 5.2 13.0 0.00 0.00 0.00 67 1008.9
20260506003054 65 213 4.3 12.2 0.00 0.00 0.00 67 1008.7
20260506001612 65 213 6.1 13.0 0.00 0.00 0.00 66 1008.6
20260506000053 65 234 7.8 15.6 0.00 0.00 0.00 66 1008.4
20260505234553 65 197 5.2 14.8 0.00 0.00 0.00 66 1008.3
20260505233056 66 225 7.8 15.6 0.00 0.00 0.00 65 1008.0
20260505231554 66 202 7.0 13.0 0.00 0.00 0.00 64 1007.9
20260505230110 67 218 6.1 13.9 0.00 0.00 0.00 62 1007.8
20260505224557 68 200 6.1 12.2 0.00 0.00 0.00 61 1007.6
20260505223058 68 216 7.0 13.9 0.00 0.00 0.00 61 1007.4
20260505221559 68 236 6.1 12.2 0.00 0.00 0.00 61 1007.7
20260505220056 68 200 7.8 15.6 0.00 0.00 0.00 60 1007.4
20260505214606 69 166 6.1 15.6 0.00 0.00 0.00 58 1007.3
20260505213100 71 196 4.3 16.5 0.00 0.00 0.00 57 1007.1
20260505211607 71 184 7.8 14.8 0.00 0.00 0.00 56 1007.0
20260505210106 72 167 7.8 19.1 0.00 0.00 0.00 55 1007.1
20260505204554 72 178 7.8 13.9 0.00 0.00 0.00 54 1007.1
20260505203054 73 181 7.0 14.8 0.00 0.00 0.00 54 1007.2
20260505201605 73 136 5.2 18.2 0.00 0.00 0.00 54 1007.3
20260505200053 73 142 8.7 16.5 0.00 0.00 0.00 54 1007.4
20260505194558 73 159 7.8 19.1 0.00 0.00 0.00 54 1007.7
20260505193054 72 172 8.7 16.5 0.00 0.00 0.00 54 1007.9
20260505191557 73 229 10.4 20.9 0.00 0.00 0.00 53 1007.9
20260505190111 74 181 6.1 14.8 0.00 0.00 0.00 53 1008.4
20260505184607 75 179 5.2 12.2 0.00 0.00 0.00 53 1008.6
20260505183054 75 128 5.2 19.1 0.00 0.00 0.00 53 1008.7
20260505181557 75 165 8.7 21.7 0.00 0.00 0.00 52 1008.7
20260505180055 76 188 8.7 16.5 0.00 0.00 0.00 51 1008.6
20260505174552 77 159 10.4 22.6 0.00 0.00 0.00 48 1008.7
20260505173056 78 161 6.1 15.6 0.00 0.00 0.00 45 1008.8
20260505171554 77 262 6.1 18.2 0.00 0.00 0.00 46 1008.9
20260505170105 76 214 7.8 17.4 0.00 0.00 0.00 47 1009.2
20260505164555 76 162 7.8 15.6 0.00 0.00 0.00 48 1009.3
20260505163107 75 180 7.0 13.0 0.00 0.00 0.00 50 1009.3
20260505161552 74 107 6.1 14.8 0.00 0.00 0.00 52 1009.7
20260505153107 74 219 4.3 11.3 0.00 0.00 0.00 51 1009.9
20260505151554 75 217 5.2 12.2 0.00 0.00 0.00 50 1010.0
20260505150111 75 234 3.5 10.4 0.00 0.00 0.00 49 1010.1
20260505140110 70 158 1.7 7.0 0.00 0.00 0.00 58 1010.2
20260505130110 64 133 2.6 6.1 0.00 0.00 0.00 68 1010.1
20260505124609 62 155 1.7 6.1 0.00 0.00 0.00 73 1010.1
20260505123114 60 151 0.9 5.2 0.00 0.00 0.00 78 1010.1
20260505121556 58 158 2.6 6.1 0.00 0.00 0.00 81 1010.4
20260505120056 57 0 0.0 4.3 0.00 0.00 0.00 83 1010.2
20260505114602 57 186 0.9 4.3 0.00 0.00 0.00 84 1010.4
20260505113055 56 0 0.0 1.7 0.00 0.00 0.00 87 1010.4
20260505111600 53 0 0.0 0.0 0.00 0.00 0.00 92 1010.3
20260505101553 49 0 0.0 0.0 0.00 0.00 0.00 92 1009.9
20260505100103 49 0 0.0 0.0 0.00 0.00 0.00 92 1009.5
20260505094604 49 0 0.0 0.0 0.00 0.00 0.00 91 1009.5
20260505093056 49 0 0.0 0.0 0.00 0.00 0.00 90 1009.4
20260505091554 50 0 0.0 2.6 0.00 0.00 0.00 91 1009.4
20260505090111 50 0 0.9 1.7 0.00 0.00 0.00 90 1009.4
20260505084554 51 0 0.0 0.9 0.00 0.00 0.00 89 1009.4
20260505083108 51 0 0.0 0.0 0.00 0.00 0.00 88 1009.3
20260505081554 52 0 0.0 2.6 0.00 0.00 0.00 89 1009.4
20260505080058 52 211 0.9 4.3 0.00 0.00 0.00 89 1009.5
20260505074556 52 211 2.6 5.2 0.00 0.00 0.00 89 1009.3
20260505073101 52 174 0.9 4.3 0.00 0.00 0.00 88 1009.3
20260505071559 52 213 1.7 3.5 0.00 0.00 0.00 87 1009.2
20260505070057 53 0 0.0 0.9 0.00 0.00 0.00 85 1009.3
20260505064554 53 215 0.0 2.6 0.00 0.00 0.00 83 1009.4
20260505063100 54 0 0.0 0.0 0.00 0.00 0.00 81 1009.4
20260505061602 54 171 0.9 2.6 0.00 0.00 0.00 79 1009.6
20260505060055 55 169 1.7 4.3 0.00 0.00 0.00 78 1009.5
20260505054558 55 167 0.9 4.3 0.00 0.00 0.00 75 1009.5
20260505053055 56 190 1.7 3.5 0.00 0.00 0.00 72 1009.7
20260505051558 57 209 2.6 7.0 0.00 0.00 0.00 71 1009.7
20260505050128 57 198 1.7 7.0 0.00 0.00 0.00 71 1009.8
20260505041604 58 239 3.5 7.8 0.00 0.00 0.00 68 1010.1
20260505040100 58 216 3.5 10.4 0.00 0.00 0.00 68 1010.1
20260505034554 58 184 3.5 7.8 0.00 0.00 0.00 68 1010.2
20260505033055 58 207 2.6 7.0 0.00 0.00 0.00 68 1010.2
20260505031556 58 215 2.6 7.0 0.00 0.00 0.00 68 1010.4
20260505030058 58 180 2.6 7.8 0.00 0.00 0.00 69 1010.2
20260505024555 58 167 2.6 7.0 0.00 0.00 0.00 69 1010.2
20260505023055 58 213 3.5 7.0 0.00 0.00 0.00 70 1010.4
20260505021556 57 194 1.7 5.2 0.00 0.00 0.00 72 1010.5
20260505020054 58 172 0.9 5.2 0.00 0.00 0.00 71 1010.4